Location: Nelson
(47.1935°N, 121.0537°W)
Time: 20:42:39
(UTC+00:00)

Envisat - Visible Passes

Search period start: 28 November 2022 00:00
Search period end: 08 December 2022 00:00
Orbit: 763 x 765 km, 98.2° (Epoch: 28 November)

Date Brightness Start Highest point End Pass type
(mag) Time Alt. Az. Time Alt. Az. Time Alt. Az.
28 Nov 4.1 12:29:11 10° NNE 12:32:00 34° NNE 12:32:00 34° NNE visible
28 Nov 4.6 14:09:46 10° NNW 14:12:10 15° NW 14:12:10 15° NW visible
29 Nov 5.0 11:52:22 10° NNE 11:54:22 22° NE 11:54:22 22° NE visible
29 Nov 4.2 13:31:45 10° N 13:34:32 24° NW 13:34:32 24° NW visible
30 Nov 5.9 00:51:28 10° WSW 00:54:22 15° W 00:57:15 10° NW visible
30 Nov 5.8 11:16:08 10° NE 11:16:44 12° NE 11:16:44 12° NE visible
30 Nov 4.2 12:54:20 10° N 12:56:54 29° N 12:56:54 29° N visible
01 Dec 4.7 12:17:15 10° NNE 12:19:17 24° NNE 12:19:17 24° NNE visible
01 Dec 4.5 13:57:23 10° NNW 13:59:28 17° NW 13:59:28 17° NW visible
02 Dec 5.4 11:40:35 10° NNE 11:41:41 16° NE 11:41:41 16° NE visible
02 Dec 4.4 13:19:37 10° N 13:21:51 23° NNW 13:21:51 23° NNW visible
03 Dec 4.6 12:42:18 10° N 12:44:15 24° N 12:44:15 24° N visible
03 Dec 4.9 14:23:42 10° NNW 14:24:26 11° NW 14:24:26 11° NW visible
04 Dec 5.2 12:05:21 10° NNE 12:06:39 18° NNE 12:06:39 18° NNE visible
04 Dec 4.6 13:45:07 10° NNW 13:46:50 17° NNW 13:46:50 17° NNW visible
05 Dec 6.2 01:06:10 10° WSW 01:07:39 11° W 01:09:07 10° WNW visible
05 Dec 5.8 11:28:51 10° NE 11:29:04 11° NE 11:29:04 11° NE visible
05 Dec 4.6 13:07:31 10° N 13:09:14 20° N 13:09:14 20° N visible
06 Dec 5.0 12:30:19 10° NNE 12:31:40 19° NNE 12:31:40 19° NNE visible
06 Dec 4.9 14:11:00 10° NNW 14:11:50 12° NNW 14:11:50 12° NNW visible
07 Dec 5.5 11:53:29 10° NNE 11:54:05 13° NNE 11:54:05 13° NNE visible
07 Dec 4.8 13:32:55 10° N 13:34:16 16° NNW 13:34:16 16° NNW visible
